Regional Weather Roundup
Issued by NWS

Home | Current Version | Previous Version | Text Only | Print | Product List | Glossary On
Versions: 1 2 3 4 5 6 7 8 9 10 11 12 13 14 15 16 17 18 19 20 21 22 23 24 25 26 27 28 29 30 31 32 33 34 35 36 37 38 39 40 41 42 43 44 45 46 47 48 49 50
000
ASUS43 KLSX 041759
RWRMO

WEATHER SUMMARY FOR MISSOURI
NATIONAL WEATHER SERVICE SPRINGFIELD MO
100 PM CDT SAT JUL 04 2015

NOTE: "FAIR" INDICATES FEW OR NO CLOUDS BELOW 12,000 FEET WITH NO
       SIGNIFICANT WEATHER AND/OR OBSTRUCTIONS TO VISIBILITY.
       CURRENT SKY AND/OR WEATHER CONDITIONS ARE NOT AVAILABLE FOR
       CHILLICOTHE AND FARMINGTON.

MOZ001>031-035>038-043-044-053-054-041900-
...NORTHERN AND WESTERN MISSOURI...

CITY           SKY/WX    TMP DP  RH WIND       PRES   REMARKS
KANSAS CTY INT PTSUNNY   78  61  55 SE6       30.02S
6HR MIN TEMP:  63; 6HR MAX TEMP:  79;

KANSAS C DTWN  SUNNY     81  62  52 E8        30.00F
6HR MIN TEMP:  64; 6HR MAX TEMP:  81;

LEE`S SUMMIT   SUNNY     79  61  53 SE8       30.03S
6HR MIN TEMP:  61; 6HR MAX TEMP:  79;

ST JOSEPH      SUNNY     79  60  52 E5        30.01F
6HR MIN TEMP:  60; 6HR MAX TEMP:  79;

CHILLICOTHE      N/A     79  62  56 S6        30.02F
6HR MIN TEMP:  61; 6HR MAX TEMP:  80;

KIRKSVILLE     SUNNY     78  61  55 VRB7      30.03F
6HR MIN TEMP:  59; 6HR MAX TEMP:  78; 6HR PCP:  0.01;


$$
MOZ066>068-077>081-088>096-101>105-041900-
...SOUTHWEST MISSOURI...

CITY           SKY/WX    TMP DP  RH WIND       PRES   REMARKS
SPRINGFIELD    MOSUNNY   81  64  56 S3        30.01F
6HR MIN TEMP:  66; 6HR MAX TEMP:  82;

JOPLIN         MOSUNNY   82  67  60 E7        30.00F
6HR MIN TEMP:  68; 6HR MAX TEMP:  83;


$$
MOZ032>034-039>042-045>050-055>058-069>072-041900-
...CENTRAL MISSOURI...

CITY           SKY/WX    TMP DP  RH WIND       PRES   REMARKS
COLUMBIA       PTSUNNY   79  62  56 VRB3      30.02F
6HR MIN TEMP:  63; 6HR MAX TEMP:  80;

JEFFERSON CITY SUNNY     79  62  56 VRB3      30.01F
6HR MIN TEMP:  62; 6HR MAX TEMP:  80;

ROLLA          MOSUNNY   78  64  61 VRB3      30.02F
6HR MIN TEMP:  63; 6HR MAX TEMP:  78;

SEDALIA        SUNNY     81  63  54 SE8       30.03F
6HR MIN TEMP:  63; 6HR MAX TEMP:  81;

OSAGE BEACH    MOSUNNY   79  61  53 E6        30.02F

$$
MOZ051-052-059>065-041900-
...EAST CENTRAL MISSOURI...

CITY           SKY/WX    TMP DP  RH WIND       PRES   REMARKS
ST LOUIS INTL  MOSUNNY   82  61  48 SE5       30.03S
6HR MIN TEMP:  69; 6HR MAX TEMP:  83;

SPIRIT OF STL  CLOUDY    79  64  60 CALM      30.01F
6HR MIN TEMP:  65; 6HR MAX TEMP:  81;

ST CHARLES     MOSUNNY   79  63  57 VRB6      30.01F
6HR MIN TEMP:  67; 6HR MAX TEMP:  80;


$$
MOZ072>076-082>087-097>100-106>115-041900-
...SOUTH CENTRAL AND SOUTHEAST MISSOURI...

CITY           SKY/WX    TMP DP  RH WIND       PRES   REMARKS
CAPE GIRARDEAU NOT AVBL
FARMINGTON     PTSUNNY   79  64  61 E6        30.06F
6HR MIN TEMP:  64; 6HR MAX TEMP:  79;

POPLAR BLUFF   CLOUDY    78  70  76 E6        29.98F
6HR MIN TEMP:  70; 6HR MAX TEMP:  78;

WEST PLAINS    PTSUNNY   79  67  66 SE3       30.03F
6HR MIN TEMP:  66; 6HR MAX TEMP:  79;


$$



USA.gov is the U.S. government's official web portal to all federal, state and local government web resources and services.